Regional Weather Roundup
Issued by NWS

Home | Current Version | Previous Version | Graphics & Text | Print | Product List | Glossary On
Versions: 1 2 3 4 5 6 7 8 9 10 11 12 13 14 15 16 17 18 19 20 21 22 23 24 25 26 27
000
ASUS45 KCYS 230410
RWRWY

WYOMING REGIONAL WEATHER ROUNDUP
NATIONAL WEATHER SERVICE CHEYENNE WY
900 PM MST THU FEB 22 2018

NOTE:  "FAIR" INDICATES FEW OR NO CLOUDS BELOW 12,000 FEET
WITH NO SIGNIFICANT WEATHER AND/OR OBSTRUCTIONS TO VISIBILITY.

WYZ001-230500-
YELLOWSTONE NATIONAL PARK

CITY           SKY/WX    TMP DP  RH WIND       PRES   REMARKS
LK YELLOWSTONE   N/A     -5  -8  87 NW3       29.88R
W YELLOWSTONE  NOT AVBL

$$
WYZ002>013-054>058-071-098>099-230500-
NORTHERN WYOMING

CITY           SKY/WX    TMP DP  RH WIND       PRES   REMARKS
JACKSON        CLOUDY    12   5  73 SE3       29.92S
CODY           FAIR       4  -3  73 CALM      30.04R
GREYBULL       FAIR      -3  -6  87 CALM      30.10R
WORLAND        FAIR      -3  -5  90 CALM      30.08R
SHERIDAN       FAIR       7  -2  66 W7        30.11R WCI  -5
BUFFALO        FAIR      14  -4  44 NW6       30.04S WCI   5
GILLETTE       FAIR       0  -5  79 CALM      30.07R
HULETT         FAIR      10   0  61 MISG      30.08R
NEWCASTLE      FAIR       7   1  78 N5        30.03S WCI  -2

$$
WYZ014>020-022>026-101>103-230500-
CENTRAL WYOMING

CITY           SKY/WX    TMP DP  RH WIND       PRES   REMARKS
BIG PINEY      LGT SNOW   9   6  88 S3        29.93R FOG
PINEDALE       CLOUDY     9   9 100 W3        29.93R
DUBOIS           N/A    N/A N/A N/A MISG        N/A
LANDER         FAIR       6  -1  73 NW3       29.98R
RIVERTON       FAIR       5  -5  63 CALM      29.99R
CASPER         FAIR      -2  -6  83 NE3       30.02R
DOUGLAS        FAIR       2  -3  80 CALM      30.04R

$$
WYZ021-027>030-104>119-230500-
SOUTHERN WYOMING

CITY           SKY/WX    TMP DP  RH WIND       PRES   REMARKS
EVANSTON       MOCLDY    10   5  80 E8        29.88F WCI  -2
FORT BRIDGER   FAIR       7   3  85 CALM      29.95
ROCK SPRINGS   MOCLDY    10   4  76 SW7       29.93R WCI  -1
DIXON          CLOUDY    20  15  81 CALM      29.98R
RAWLINS        CLOUDY    12   8  84 CALM      29.95R
SARATOGA       LGT SNOW  18  18 100 S6        29.95R WCI   9
LARAMIE        MOCLDY     5   5 100 CALM      29.92S FOG
CHEYENNE       FAIR      15  13  91 W7        29.98S FOG     WCI   5
TORRINGTON     FAIR      20  12  71 W5        30.04R WCI  13
PINE BLUFFS    CLOUDY    18  14  86 W7        30.03S WCI   8

$$




USA.gov is the U.S. government's official web portal to all federal, state and local government web resources and services.